Location: Bern�tre
(50.1974°N, 2.0915°E)
Time: 03:14:43
(UTC+00:00)

USA 234 - Pass Details

Date: 18 September 2020
Orbit: 1102 x 1106 km, 123.0° (Epoch: 16 October)

Event Time Altitude Azimuth Distance (km) Brightness Sun altitude
Rises 22:00:28 0° 62° (ENE) 3,926 6.1 -33.7°
Reaches altitude 10° 22:02:58 10° 59° (ENE) 2,967 5.5 -33.9°
Enters shadow 22:03:22 12° 59° (ENE) 2,817 5.4 -34.0°
Exits shadow 22:06:55 39° 45° (NE) 1,611 4.1 -34.2°
Maximum altitude 22:09:25 64° 340° (NNW) 1,217 3.5 -34.4°
Drops below altitude 10° 22:15:51 10° 261° (W) 2,963 5.7 -34.9°
Sets 22:18:21 0° 259° (W) 3,920 6.3 -35.1°
